Tracking 21094 objects as of 12-Aug-2020
HD Live streaming from Space Station
objects crossing your sky now
Track the most recent launched group of Starlink satellites

IRS P4 (OCEANSAT 1)

Track IRS P4 (OCEANSAT 1) now!
10-day predictions
IRS P4 (OCEANSAT 1) is classified as:


NORAD ID: 25758
Int'l Code: 1999-029C
Perigee: 723.0 km
Apogee: 726.0 km
Inclination: 98.0 °
Period: 99.1 minutes
Semi major axis: 7095 km
RCS: 3.5411 m2 (large)
Launch date: May 26, 1999
Source: India (IND)
Launch site: SRIHARIKOTA (SRI)

Transmits image of its own view; not currently used for scientific mission but operational.
aabbcc
Your satellite tracking list
Your tracking list is empty




NASA's NSSDC Master Catalog

Two Line Element Set (TLE):
1 25758U 99029C   20224.91407458 +.00000029 +00000-0 +17362-4 0  9998
2 25758 098.0230 277.8581 0002175 330.3771 029.7302 14.52541907123937
Source of the keplerian elements: AFSPC